Погода в Лекшуре

Россия / Удмуртская Республика     57°08′59″N   51°51′26″E
темп.,
°C
ветер,
м/с
пор.,
м/с
влажн.,
%
обл.,
%
осадки,
мм/ч
давл.,
гПа
погр.,
м
14 мая, пт
пт1401:00+17ююв286579 0.0 1023137
04:00+16ююв246964 0.1 102469
07:00+18ю387299 0.6 1023232
10:00+24ю464462 0.8 1022677
13:00+28ю573230 0.0 10211762
16:00+28ю59289 0.0 10202472
19:00+25ю41046100 0.0 1019460
22:00+20ю3135931 0.0 1018406
15 мая, сб
сб1501:00+16ююз267536 0.0 1018111
04:00+15юз2481100 0.0 101974
07:00+19ююз126991 0.0 1019174
10:00+25ю3454100 0.0 1019734
13:00+28ююз5834100 0.0 10181370
16:00+29ююз51130100 0.0 10171635
19:00+25ююз6123880 0.0 1016928
22:00+21ююз4154712 0.0 1017506
16 мая, вс
вс1601:00+17ююз3126239 0.0 1017230
04:00+15ююз28653 0.0 1018142
07:00+19ююз38545 0.0 1018229
10:00+26ююз593235 0.0 1017842
13:00+30ююз612245 0.0 10162721
16:00+30юз6112657 0.0 10163264
19:00+25ююз41043100 0.0 1016604
22:00+19ююз2106599 0.0 1016202
17 мая, пн
пн1701:00+16юз227339 0.0 101635
04:00+15юз118399 0.0 101710
07:00+19з237557 0.1 1018220
10:00+24зюз355498 0.1 10181149
13:00+27зюз46405 0.0 10172147
16:00+28з47385 0.0 10172281
19:00+24зсз265246 0.0 1017227
22:00+18с117312 0.1 101811
18 мая, вт
вт1801:00+17юв117729 0.2 101811
04:00+15вюв118663 0.7 101910
07:00+20ююв127381 0.0 1018135
10:00+26ююз244571 0.0 1018750
13:00+30з352216 0.0 10173090
16:00+30зсз34206 0.0 10173454
19:00+25ссв124094 0.0 101636
22:00+22вюв224322 0.0 101822